目前日期文章:201702 (249)

瀏覽方式: 標題列表 簡短摘要
發表時間 文章標題 人氣 留言
2017-02-28 最新上豪微電腦電磁爐(IH-1611)-精選 (0) (0)
2017-02-28 好康分享大通5C訊號線接頭(6入)(P5CF)-好評商品 (0) (0)
2017-02-28 搶便宜Panasonic610公升ECONAVInanoe四門變頻冰箱(NR-D618NHV-L(香檳金))-網友 (0) (0)
2017-02-28 經典Pioneer SE-MJ502迷你耳罩式耳機-紫(SE-MJ502-V)-免出門 (0) (0)
2017-02-28 優惠中SWIFT 蒸汽熨斗(STK-7542CS)-精選優惠 (0) (0)
2017-02-28 團購3M 調光式LED檯燈-亮透白(LD6000-WH)-新品上架 (0) (0)
2017-02-28 經典廣寰 G6龍紋戰魂電競耳麥(KW-G6)-心得 (1) (0)
2017-02-28 CP值超高飛利浦 Poemia半自動義式咖啡機(HD8327)-居家 (3) (0)
2017-02-28 熱門商品西歐科技 智能聲波電動牙刷 (象牙白)(CME-TH800)-哪個最便宜 (0) (0)
2017-02-28 強檔精選ALTEC VS-4621 三件式喇叭(VS-4621)-智慧型 (0) (0)
2017-02-28 優惠中Panasonic GF7K可交換式鏡頭相機-白(DMC-GF7K-W)-部落客推薦 (0) (0)
2017-02-28 網購經驗分享總舖師養生麵條4袋 (1袋6入)(刀削 番茄 南瓜 紅麴)-實用商品 (0) (0)
2017-02-28 開箱HITACHI475公升白金觸媒ECO六門超變頻冰箱(RSF48FJW星燦白)-家電 (0) (0)
2017-02-28 強檔精選Panasonic 無線電熨斗(NI-WL30)-開箱 (4) (0)
2017-02-27 本周精選飛利浦 5L旗艦微電腦智慧萬用鍋(HD2175)-開箱 (1) (0)
2017-02-27 熱門商品Suunto Ambit3 Sport HR進階多項運動GPS女用腕錶-紅(Ambit3 Sport HR)-出清特賣 (0) (0)
2017-02-27 搶便宜MILA 摩卡登山爐架組(WS1012)-熱門 (0) (0)
2017-02-27 搶便宜PHILIPS MiniVac手持式吸塵器(FC6152-31)-特賣 (0) (0)
2017-02-27 優惠中T.C.STAR TCE8000運動藍芽耳機-黑(TCE8000BK)-秒殺 (1) (0)
2017-02-27 強檔精選【GTSTAR】陶瓷恆溫加熱泡腳機(6801A)-時下最夯 (1) (0)
2017-02-27 驚喜商品Jabees Bsport 運動型藍牙耳機-紅(Bsport紅)-網友開箱介紹 (0) (0)
2017-02-27 非買不可TWINBIRD電動虹吸式咖啡壺(CM-D853)-精選 (0) (0)
2017-02-26 好康Panasonic RP-DJS150耳機-黑(RP-DJS150-K)-智慧型 (0) (0)
2017-02-26 CP值爆表飛利浦電子式智慧型厚片烤麵包機(HD2595)-精選 (0) (0)
2017-02-26 超搶手I-SHOCK NB10.6吋 NB寬專用衝擊避震包--內袋型-購買 (0) (0)
2017-02-26 搶便宜金蔘-6年根韓國高麗人蔘蔘芝王禮盒(10入-盒,共2盒)加贈蔘芝王1瓶-生活用品 (0) (0)
2017-02-25 驚喜商品男子UA Corespeed Force 2.0 FG足球鞋 - 1264201-006-好康偷偷說 (0) (0)
2017-02-25 優惠中【Lamar Scarves】印花絲巾 - BARBICAN CENTRE 巴比肯藝術中心-好評 (0) (0)
2017-02-25 好康報報《買1送1》【韓國】無油煙排油33cm烤盤(33CM圓型)NY21909 優柏多功能小火鍋TSK-2162-紀念日禮物 (0) (0)
2017-02-25 搶便宜【Tree Walker】鋁合金斜角露營折疊收納桌 蛋捲桌 鋁捲桌 120-70cm - 送提袋.桌巾 (103012)-活動折扣搶先預定 (0) (0)
2017-02-25 特價男孩UA Contender Tapered Warm-Up長褲 - 1275212-001-直殺成本 (0) (0)
2017-02-25 強檔優惠Nike Pro HyperWarm - 11094530-網友開箱介紹 (0) (0)
2017-02-24 強檔優惠男子UA CoolSwitch 2合1跑步短褲 - 1276516-907-獨家 (0) (0)
2017-02-24 買到賺到《Fun Sport》滾動力按摩滾輪棒【硬漢灰-40硬度】-商場百貨 (0) (0)
2017-02-24 買到賺到【LG樂金】253公升變頻雙門冰箱GN-L305W(典雅白)-好康偷偷說 (0) (0)
2017-02-24 本周精選Nike Dry Contour - 10293667-時下最夯 (0) (0)
2017-02-24 非買不可FUJIFILM Instax mini 8 拍立得相機(恆昶公司貨)-黑-僅此一檔 (0) (0)
2017-02-24 優惠中CN卡通頻道授權正版 ASUS ZenFone 2 Laser 5.5吋 ZE550KL探險活寶透明軟式手機殼(阿寶開心)-本周折扣 (0) (0)
2017-02-24 CP值超高Jordan Son Of Mars - 11256289-送禮 (6) (0)
2017-02-24 好康推推Nike Dry Squad - 11113738-本季推薦 (0) (0)
2017-02-24 非買不可【元山】捕蚊瓢蟲 光觸媒捕蚊燈 YS-309MK-限時商品 (0) (0)
2017-02-23 強檔精選【MOTO】 HK255 雙待機耳掛式藍牙耳機-折價卷 (0) (0)
2017-02-23 搶便宜【勳風】節能-直流變頻-頂上循環扇HF-7499DC(送勳風手電筒 收音機)-限時活動 (0) (0)
2017-02-23 買到賺到MiFa M9無線藍牙MP3喇叭(經典黑)-開箱文 (0) (0)
2017-02-23 買到賺到【OAKLEY】SKULL CROWN CROSS LINE POLO 黃金骷髏頭 日本限定版高爾夫POLO衫-黑(M)-勸敗 (1) (0)
2017-02-23 CP值超高【SHOKAY】荷葉邊披肩-橙紅-活動 (0) (0)
2017-02-23 特價【豐茶】台灣茶王手作茶-清新烏龍(50g)-2016秒購商品 (0) (0)
2017-02-23 超搶手【義大利Flonal】石器系列不沾炒鍋36cm(含鍋蓋)★贈24cm平煎鍋 木鏟-當紅網路話題 (0) (0)
2017-02-23 強檔優惠男子UA Yard Low ST棒球鞋 - 1264167-011-最後機會 (0) (0)
2017-02-23 好康分享Nike Pro Rival Racerback - 11009853-評價 (0) (0)
1 2345
找更多相關文章與討論